• In Romania
  • List of Countries
  • For 7 days
  • Water Temperature
  • Satellite Maps
  • Weather Map
  • Weather Widgets
  • user-avatar
    Login

    Hourly Weather Sydney

    Today, 20 February, Monday

    Time Temperature Precipitation Wind Pressure Humidity
    00:00 +17°C° 0 mm 4 mps 754 mmHg 69%
    01:00 +15°C° 0 mm 5 mps 755 mmHg 60%
    02:00 +14°C° 0 mm 5 mps 755 mmHg 59%
    03:00 +14°C° 0 mm 5 mps 755 mmHg 58%
    04:00 +13°C° 0 mm 6 mps 755 mmHg 56%
    05:00 +14°C° 0 mm 6 mps 756 mmHg 57%
    06:00 +15°C° 0 mm 6 mps 757 mmHg 57%
    07:00 +15°C° 0 mm 6 mps 757 mmHg 57%
    08:00 +17°C° 0 mm 6 mps 757 mmHg 49%
    09:00 +20°C° 0 mm 6 mps 757 mmHg 40%
    10:00 +22°C° 0 mm 5 mps 757 mmHg 32%
    11:00 +25°C° 0 mm 4 mps 757 mmHg 28%
    12:00 +26°C° 0 mm 3 mps 757 mmHg 23%
    13:00 +28°C° 0 mm 3 mps 757 mmHg 19%
    14:00 +28°C° 0 mm 3 mps 757 mmHg 19%
    15:00 +29°C° 0 mm 3 mps 757 mmHg 18%
    16:00 +29°C° 0 mm 3 mps 757 mmHg 18%
    17:00 +26°C° 0 mm 3 mps 757 mmHg 28%
    18:00 +22°C° 0 mm 3 mps 758 mmHg 37%
    19:00 +19°C° 0 mm 3 mps 759 mmHg 46%
    20:00 +18°C° 0 mm 3 mps 759 mmHg 51%
    21:00 +17°C° 0 mm 3 mps 760 mmHg 55%
    22:00 +16°C° 0 mm 3 mps 761 mmHg 59%
    23:00 +16°C° 0 mm 3 mps 761 mmHg 60%

    Tomorrow, 21 February, Tuesday

    Time Temperature Precipitation Wind Pressure Humidity
    00:00 +14°C° 0 mm 3 mps 761 mmHg 61%
    01:00 +14°C° 0 mm 3 mps 761 mmHg 62%
    02:00 +13°C° 0 mm 3 mps 761 mmHg 60%
    03:00 +14°C° 0 mm 2 mps 761 mmHg 58%
    04:00 +14°C° 0 mm 2 mps 761 mmHg 57%
    05:00 +15°C° 0 mm 2 mps 762 mmHg 54%
    06:00 +16°C° 0 mm 2 mps 762 mmHg 50%
    07:00 +17°C° 0 mm 2 mps 763 mmHg 47%
    08:00 +22°C° 0 mm 1 mps 763 mmHg 42%
    09:00 +25°C° 0 mm 1 mps 763 mmHg 37%
    10:00 +29°C° 0 mm 1 mps 764 mmHg 32%
    11:00 +29°C° 0 mm 1 mps 763 mmHg 34%
    12:00 +29°C° 0 mm 2 mps 763 mmHg 35%
    13:00 +30°C° 0 mm 3 mps 763 mmHg 36%
    14:00 +29°C° 0 mm 4 mps 762 mmHg 40%
    15:00 +29°C° 0 mm 4 mps 762 mmHg 43%
    16:00 +28°C° 0 mm 5 mps 762 mmHg 47%
    17:00 +26°C° 0 mm 5 mps 762 mmHg 54%
    18:00 +25°C° 0 mm 5 mps 763 mmHg 62%
    19:00 +22°C° 0 mm 5 mps 763 mmHg 69%
    20:00 +21°C° 0 mm 5 mps 764 mmHg 74%
    21:00 +20°C° 0 mm 5 mps 764 mmHg 79%
    22:00 +19°C° 0 mm 5 mps 765 mmHg 85%
    23:00 +19°C° 0 mm 5 mps 765 mmHg 87%

    Day after tomorrow, 22 February, Wednesday

    Time Temperature Precipitation Wind Pressure Humidity
    00:00 +18°C° 0 mm 4 mps 764 mmHg 89%
    01:00 +18°C° 0 mm 4 mps 764 mmHg 92%
    02:00 +17°C° 0 mm 4 mps 764 mmHg 93%
    03:00 +17°C° 0 mm 3 mps 764 mmHg 94%
    04:00 +16°C° 0 mm 3 mps 763 mmHg 95%
    05:00 +18°C° 0 mm 3 mps 764 mmHg 90%
    06:00 +19°C° 0 mm 3 mps 764 mmHg 86%
    07:00 +20°C° 0 mm 3 mps 764 mmHg 82%
    08:00 +23°C° 0 mm 4 mps 764 mmHg 73%
    09:00 +26°C° 0 mm 4 mps 764 mmHg 64%
    10:00 +28°C° 0 mm 5 mps 764 mmHg 55%
    11:00 +29°C° 0 mm 5 mps 763 mmHg 51%
    12:00 +30°C° 0 mm 6 mps 763 mmHg 47%
    13:00 +32°C° 0 mm 6 mps 762 mmHg 43%
    14:00 +32°C° 0 mm 6 mps 761 mmHg 45%
    15:00 +32°C° 0 mm 7 mps 761 mmHg 48%
    16:00 +32°C° 0 mm 7 mps 760 mmHg 50%
    17:00 +29°C° 0 mm 7 mps 760 mmHg 58%
    18:00 +27°C° 0 mm 7 mps 761 mmHg 67%
    19:00 +24°C° 0 mm 7 mps 761 mmHg 76%
    20:00 +23°C° 0 mm 7 mps 761 mmHg 81%
    21:00 +22°C° 0 mm 6 mps 762 mmHg 85%
    22:00 +21°C° 0 mm 6 mps 762 mmHg 90%
    23:00 +20°C° 0 mm 5 mps 762 mmHg 91%

    23 February, Thursday

    Time Temperature Precipitation Wind Pressure Humidity
    00:00 +20°C° 0 mm 5 mps 762 mmHg 93%
    01:00 +19°C° 0 mm 4 mps 762 mmHg 94%
    02:00 +19°C° 0 mm 4 mps 761 mmHg 95%
    03:00 +18°C° 0 mm 4 mps 761 mmHg 95%
    04:00 +18°C° 0 mm 4 mps 761 mmHg 96%
    05:00 +19°C° 0 mm 3 mps 762 mmHg 92%
    06:00 +20°C° 0 mm 3 mps 762 mmHg 88%
    07:00 +21°C° 0 mm 3 mps 763 mmHg 84%
    08:00 +25°C° 0 mm 2 mps 763 mmHg 71%
    09:00 +28°C° 0 mm 2 mps 763 mmHg 59%
    10:00 +32°C° 0 mm 2 mps 763 mmHg 47%
    11:00 +33°C° 0 mm 3 mps 763 mmHg 48%
    12:00 +33°C° 0 mm 3 mps 763 mmHg 49%
    13:00 +33°C° 0 mm 4 mps 762 mmHg 49%
    14:00 +32°C° 0 mm 4 mps 762 mmHg 53%
    15:00 +30°C° 0 mm 3 mps 762 mmHg 57%
    16:00 +30°C° 0 mm 3 mps 762 mmHg 61%
    17:00 +28°C° 0 mm 3 mps 762 mmHg 70%
    18:00 +26°C° 0 mm 3 mps 763 mmHg 80%
    19:00 +24°C° 0 mm 2 mps 763 mmHg 89%
    20:00 +23°C° 0 mm 2 mps 764 mmHg 91%
    21:00 +23°C° 0 mm 2 mps 764 mmHg 93%
    22:00 +21°C° 0 mm 2 mps 765 mmHg 96%
    23:00 +21°C° 0 mm 2 mps 765 mmHg 96%

    24 February, Friday

    Time Temperature Precipitation Wind Pressure Humidity
    00:00 +21°C° 0 mm 2 mps 764 mmHg 97%
    01:00 +20°C° 0 mm 2 mps 764 mmHg 97%
    02:00 +20°C° 0 mm 2 mps 764 mmHg 97%
    03:00 +21°C° 0 mm 1 mps 764 mmHg 97%
    04:00 +21°C° 0 mm 1 mps 764 mmHg 97%
    05:00 +22°C° 0 mm 1 mps 765 mmHg 94%
    06:00 +23°C° 0 mm 1 mps 765 mmHg 91%
    07:00 +24°C° 0 mm 1 mps 766 mmHg 88%
    08:00 +26°C° 0 mm 2 mps 766 mmHg 77%
    09:00 +28°C° 0 mm 2 mps 766 mmHg 66%
    10:00 +30°C° 0 mm 2 mps 765 mmHg 54%
    11:00 +31°C° 0 mm 3 mps 765 mmHg 50%
    12:00 +33°C° 0 mm 3 mps 764 mmHg 46%
    13:00 +34°C° 0 mm 3 mps 764 mmHg 41%
    14:00 +34°C° 0 mm 4 mps 763 mmHg 44%
    15:00 +33°C° 0 mm 4 mps 763 mmHg 47%
    16:00 +32°C° 0 mm 5 mps 762 mmHg 49%
    17:00 +29°C° 0.2 mm 4 mps 763 mmHg 60%
    18:00 +27°C° 0.2 mm 4 mps 763 mmHg 72%
    19:00 +23°C° 0.2 mm 4 mps 763 mmHg 83%
    20:00 +24°C° 0.1 mm 3 mps 764 mmHg 86%
    21:00 +22°C° 0.1 mm 3 mps 764 mmHg 90%
    22:00 +21°C° 0.1 mm 2 mps 764 mmHg 94%
    23:00 +23°C° 0 mm 2 mps 764 mmHg 93%

    25 February, Saturday

    Time Temperature Precipitation Wind Pressure Humidity
    00:00 +23°C° 0 mm 2 mps 764 mmHg 93%
    01:00 +23°C° 0 mm 2 mps 763 mmHg 92%
    02:00 +23°C° 0.1 mm 2 mps 763 mmHg 93%
    03:00 +22°C° 0.1 mm 3 mps 763 mmHg 93%
    04:00 +22°C° 0.1 mm 3 mps 763 mmHg 94%
    05:00 +22°C° 0.1 mm 3 mps 764 mmHg 93%
    06:00 +22°C° 0.1 mm 4 mps 764 mmHg 92%
    07:00 +22°C° 0.1 mm 4 mps 764 mmHg 91%
    08:00 +22°C° 0.2 mm 5 mps 764 mmHg 89%
    09:00 +22°C° 0.2 mm 5 mps 765 mmHg 87%
    10:00 +22°C° 0.2 mm 5 mps 765 mmHg 85%
    11:00 +22°C° 0.2 mm 6 mps 764 mmHg 84%
    12:00 +22°C° 0.2 mm 6 mps 764 mmHg 82%
    13:00 +21°C° 0.2 mm 7 mps 764 mmHg 81%
    14:00 +21°C° 0.1 mm 7 mps 764 mmHg 79%
    15:00 +21°C° 0.1 mm 7 mps 764 mmHg 77%
    16:00 +21°C° 0.1 mm 7 mps 764 mmHg 75%
    17:00 +21°C° 0.1 mm 7 mps 765 mmHg 75%
    18:00 +21°C° 0.1 mm 7 mps 765 mmHg 75%
    19:00 +21°C° 0.1 mm 7 mps 766 mmHg 75%
    20:00 +20°C° 0.1 mm 7 mps 766 mmHg 75%
    21:00 +20°C° 0.1 mm 7 mps 766 mmHg 76%
    22:00 +20°C° 0.1 mm 6 mps 766 mmHg 76%
    23:00 +20°C° 0.1 mm 6 mps 766 mmHg 76%
    Show more